Miles City, MT

9:02 AM MDT on May 25, 2017 (GMT -0600)
Wiley

Weather History for KMLS - January, 2015

Change the Weather History Date:

Thursday, January 1, 2015

  Actual Average Record
Temperature  
Mean Temperature 22 °F 18 °F  
Max Temperature 32 °F 29 °F 57 °F (1964)
Min Temperature 11 °F 8 °F -29 °F (1942)
Degree Days  
Heating Degree Days 43 47  
Month to date heating degree days 43 47  
Since 1 July heating degree days 3074 3231  
Cooling Degree Days 0 0  
Month to date cooling degree days 0 0  
Year to date cooling degree days 0 0  
Moisture  
Dew Point 17 °F    
Average Humidity 70    
Maximum Humidity 78    
Minimum Humidity 62    
Precipitation  
Precipitation 0.00 in 0.01 in 0.32 in (1991)
Month to date precipitation 0.00 0.01  
Year to date precipitation 0.00 0.01  
Sea Level Pressure  
Sea Level Pressure 30.11 in    
Wind  
Wind Speed 7 mph (WSW)    
Max Wind Speed 15 mph    
Max Gust Speed 18 mph    
Visibility 10 miles    
Events      
T = Trace of Precipitation, MM = Missing Value Source: NWS Daily Summary

Daily Weather History Graph

Daily Weather History Graph

Search for Another Location

Airport or City:

Trip Planner

Search our weather history database for the weather conditions in past years. The results will help you decide how hot, cold, wet, or windy it might be!

Date:

Astronomy

Jan. 01, 2015 Rise Set
Actual Time 7:47 AM MST 4:27 PM MST
Civil Twilight 7:12 AM MST 5:02 PM MST
Nautical Twilight 6:34 AM MST 5:40 PM MST
Astronomical Twilight 5:57 AM MST 6:16 PM MST
Moon 2:08 PM MST (1/1) 4:11 AM MST (1/1)
Length of Visible Light 9h 49m
Length of Day
8h 40m
Waxing Gibbous, 88% of the Moon is Illuminated
Jan 1
Waxing Gibbous
Jan 4
Full
Jan 13
Last Quarter
Jan 20
New
Jan 26
First Quarter

Hourly Weather History & Observations

Time (MST) Temp. Windchill Dew Point Humidity Pressure Visibility Wind Dir Wind Speed Gust Speed Precip Events Conditions
12:53 AM 12.0 °F 0.5 °F 5.0 °F 73% 30.12 in 10.0 mi WSW 8.1 mph - N/A   Clear
1:53 AM 12.0 °F -0.4 °F 5.0 °F 73% 30.12 in 10.0 mi WSW 9.2 mph - N/A   Mostly Cloudy
2:53 AM 19.0 °F 10.0 °F 9.0 °F 65% 30.10 in 10.0 mi WSW 6.9 mph - N/A   Overcast
3:53 AM 18.0 °F 5.4 °F 10.0 °F 71% 30.07 in 10.0 mi SW 11.5 mph - N/A   Overcast
4:53 AM 21.9 °F 14.5 °F 12.0 °F 66% 30.07 in 10.0 mi WSW 5.8 mph - N/A   Overcast
5:53 AM 23.0 °F 13.1 °F 12.0 °F 63% 30.07 in 10.0 mi West 9.2 mph - N/A   Overcast
6:53 AM 23.0 °F 11.7 °F 14.0 °F 68% 30.09 in 10.0 mi West 11.5 mph - N/A   Overcast
7:53 AM 23.0 °F 14.7 °F 14.0 °F 68% 30.11 in 10.0 mi WSW 6.9 mph - N/A   Overcast
8:53 AM 24.1 °F 18.2 °F 16.0 °F 71% 30.13 in 10.0 mi West 4.6 mph - N/A   Overcast
9:53 AM 26.1 °F 19.4 °F 16.0 °F 66% 30.14 in 10.0 mi WSW 5.8 mph - N/A   Overcast
10:53 AM 27.0 °F 23.0 °F 17.1 °F 66% 30.14 in 10.0 mi West 3.5 mph - N/A   Overcast
11:53 AM 28.9 °F 19.8 °F 19.0 °F 67% 30.12 in 10.0 mi WNW 10.4 mph - N/A   Mostly Cloudy
12:53 PM 28.9 °F 21.1 °F 21.0 °F 72% 30.12 in 10.0 mi West 8.1 mph - N/A   Overcast
1:53 PM 30.0 °F 21.1 °F 21.0 °F 69% 30.11 in 10.0 mi WNW 10.4 mph - N/A   Clear
2:53 PM 30.0 °F 21.1 °F 23.0 °F 75% 30.10 in 10.0 mi WSW 10.4 mph - N/A   Overcast
3:53 PM 28.9 °F 22.8 °F 23.0 °F 78% 30.13 in 10.0 mi SW 5.8 mph - N/A   Overcast
4:53 PM 28.9 °F 20.4 °F 21.9 °F 75% 30.12 in 10.0 mi WSW 9.2 mph - N/A   Overcast
5:53 PM 28.9 °F 22.8 °F 21.9 °F 75% 30.12 in 10.0 mi West 5.8 mph - N/A   Overcast
6:53 PM 28.0 °F 21.7 °F 23.0 °F 81% 30.12 in 10.0 mi WSW 5.8 mph - N/A   Overcast
7:53 PM 28.0 °F - 21.9 °F 78% 30.13 in 10.0 mi Calm Calm - N/A   Overcast
8:53 PM 26.1 °F 19.4 °F 19.9 °F 78% 30.12 in 10.0 mi South 5.8 mph - N/A   Overcast
9:53 PM 27.0 °F 18.0 °F 19.9 °F 75% 30.10 in 10.0 mi South 9.2 mph - N/A   Overcast
10:53 PM 26.1 °F 20.5 °F 19.9 °F 78% 30.11 in 10.0 mi WSW 4.6 mph - N/A   Scattered Clouds
11:53 PM 24.1 °F 16.0 °F 19.0 °F 81% 30.10 in 10.0 mi South 6.9 mph - N/A   Overcast